Weather History for Van, Turkey

Change the Weather History Date:

Wednesday, March 20, 2013

  Actual Average Record
Temperature  
Mean Temperature 34 °F -  
Max Temperature 42 °F 51 °F 55 °F (2001)
Min Temperature 25 °F 33 °F 14 °F (2012)
Degree Days  
Heating Degree Days 32    
Moisture  
Dew Point 28 °F    
Average Humidity 74    
Maximum Humidity 93    
Minimum Humidity 51    
Precipitation  
Precipitation 0.00 in 0.07 in - ()
Sea Level Pressure  
Sea Level Pressure 30.04 in    
Wind  
Wind Speed 3 mph ()    
Max Wind Speed 10 mph    
Max Gust Speed -    
Visibility 6.2 miles    
Events      
Averages and records for this station are not official NWS values.
T = Trace of Precipitation, MM = Missing Value Source: Averaged Metar Reports

Daily Weather History Graph

Daily Weather History Graph

Search for Another Location

Airport:

Trip Planner

Search our weather history database for the weather conditions in past years. The results will help you decide how hot, cold, wet, or windy it might be!

Date:

Astronomy

Mar. 20, 2013 Rise Set
Actual Time 5:10 AM EET 5:18 PM EET
Civil Twilight 4:43 AM EET 5:44 PM EET
Nautical Twilight 4:12 AM EET 6:15 PM EET
Astronomical Twilight 3:41 AM EET 6:47 PM EET
Moon 10:38 AM EET (3/20) 12:29 AM EET (3/20)
Length of Visible Light 13h 01m
Length of Day
12h 08m
First Quarter, 57% of the Moon is Illuminated
Mar 20
First Quarter
Mar 27
Full
Apr 3
Last Quarter
Apr 10
New
Apr 18
First Quarter

Hourly Weather History & Observations

Time (EET) Temp. Windchill Dew Point Humidity Pressure Visibility Wind Dir Wind Speed Gust Speed Precip Events Conditions
12:50 AM 28.4 °F 24.6 °F 26.6 °F 93% 30.04 in 6.2 mi SE 3.5 mph - N/A   Scattered Clouds
1:50 AM 28.4 °F - 26.6 °F 93% 30.04 in 6.2 mi Calm Calm - N/A   Mostly Cloudy
2:00 AM 28 °F - 26 °F 87%  in 6 mi Calm Calm - -   Partly Cloudy
2:50 AM 28.4 °F 24.6 °F 26.6 °F 93% 30.01 in 6.2 mi ENE 3.5 mph - N/A   Mostly Cloudy
3:50 AM 30.2 °F 26.7 °F 26.6 °F 86% 30.04 in 6.2 mi NE 3.5 mph - N/A   Mostly Cloudy
4:50 AM 28.4 °F - 26.6 °F 93% 30.04 in 6.2 mi SSE 2.3 mph - N/A   Scattered Clouds
5:50 AM 28.4 °F - 26.6 °F 93% 30.04 in 6.2 mi NE 2.3 mph - N/A   Mostly Cloudy
6:50 AM 35.6 °F - 30.2 °F 81% 30.04 in 6.2 mi Calm Calm - N/A   Mostly Cloudy
7:50 AM 37.4 °F 34.9 °F 28.4 °F 70% 30.04 in 6.2 mi West 3.5 mph - N/A   Mostly Cloudy
8:00 AM 37 °F - 29 °F 62%  in 6 mi West 3.5 mph - -   Scattered Clouds
8:50 AM 39.2 °F 35.0 °F 28.4 °F 65% 30.04 in 6.2 mi West 5.8 mph - N/A   Mostly Cloudy
9:50 AM 39.2 °F 33.0 °F 28.4 °F 65% 30.04 in 6.2 mi WNW 9.2 mph - N/A   Mostly Cloudy
10:50 AM 39.2 °F 33.0 °F 28.4 °F 65% 30.04 in 6.2 mi WNW 9.2 mph - N/A   Mostly Cloudy
11:50 AM 39.2 °F 32.5 °F 30.2 °F 70% 30.04 in 6.2 mi WNW 10.4 mph - N/A   Mostly Cloudy
12:50 PM 41.0 °F 36.4 °F 30.2 °F 65% 30.04 in 6.2 mi West 6.9 mph - N/A   Mostly Cloudy
1:50 PM 41.0 °F 36.4 °F 30.2 °F 65% 30.04 in 6.2 mi West 6.9 mph - N/A   Mostly Cloudy
2:00 PM 41 °F - 29 °F 51%  in 6 mi West 6.9 mph - -   Scattered Clouds
2:50 PM 41.0 °F 36.4 °F 28.4 °F 61% 30.01 in 6.2 mi West 6.9 mph - N/A   Mostly Cloudy
3:50 PM 41.0 °F 36.4 °F 28.4 °F 61% 30.04 in 6.2 mi WNW 6.9 mph - N/A   Mostly Cloudy
4:50 PM 39.2 °F 37.0 °F 28.4 °F 65% 30.04 in 6.2 mi South 3.5 mph - N/A   Mostly Cloudy
5:50 PM 39.2 °F 37.0 °F 28.4 °F 65% 30.04 in 6.2 mi South 3.5 mph - N/A   Mostly Cloudy
6:50 PM 37.4 °F - 28.4 °F 70% 30.06 in 6.2 mi Variable 2.3 mph - N/A   Mostly Cloudy
7:50 PM 35.6 °F - 26.6 °F 70% 30.09 in 6.2 mi South 2.3 mph - N/A   Scattered Clouds
8:00 PM 35 °F - 26 °F 60%  in 6 mi South 2.3 mph - -   Partly Cloudy
8:50 PM 35.6 °F 31.7 °F 26.6 °F 70% 30.09 in 6.2 mi SE 4.6 mph - N/A   Scattered Clouds
9:50 PM 33.8 °F 30.8 °F 28.4 °F 81% 30.06 in 6.2 mi ESE 3.5 mph - N/A   Scattered Clouds
10:50 PM 30.2 °F 26.7 °F 26.6 °F 86% 30.06 in 6.2 mi East 3.5 mph - N/A   Scattered Clouds
11:50 PM 28.4 °F - 24.8 °F 86% 30.06 in 6.2 mi Variable 2.3 mph - N/A   Partly Cloudy